Location: Unspecified
(0.0000°N, 0.0000°E)
Time: 18:09:01
(UTC+00:00)

STARLINK 1008 - Pass Details

Date: 16 January 2020
Orbit: 347 x 352 km, 53.0° (Epoch: 17 January)

Event Time Altitude Azimuth Distance (km) Brightness Sun altitude
Rises 04:58:45 0° 180° (S) 2,144 6.9 -16.5°
Reaches altitude 10° 05:02:16 10° 135° (SE) 1,299 6.6 -15.7°
Maximum altitude 05:02:46 10° 125° (SE) 1,280 6.8 -15.5°
Drops below altitude 10° 05:03:16 10° 115° (ESE) 1,297 6.9 -15.4°
Sets 05:06:46 0° 69° (ENE) 2,133 7.4 -14.6°
